Tulsa, OK (74182)

5:32 AM CST on December 03, 2016 (GMT -0600)
Maple Ridge | | Change Station

Elev 738 ft 36.14 °N, 95.98 °W | Updated 1 minute ago

Overcast
Overcast
45.6 °F
Feels Like 46 °F
N
0.0
Wind Variable Wind from NNE
Gusts 0.0 mph

Today
High -- | Low -- °F
--% Chance of Precip.
Yesterday
High -- | Low -- °F
Precip. -- in
Pressure 30.20 in
Visibility 10.0 miles
Clouds Mostly Cloudy 7000 ft
Overcast 10000 ft
Windchill 46 °F
Dew Point 34 °F
Humidity 65%
Rainfall 0.00 in
Snow Depth Not available.
7:18 AM 5:09 PM
Waxing Crescent, 14% visible
METAR KTUL 031053Z 00000KT 10SM BKN070 OVC100 07/01 A3020 RMK AO2 SLP226 T00720011
Pressure 30.20 in
Visibility 10.0 miles
Clouds Mostly Cloudy 7000 ft
Overcast 10000 ft
Windchill 46 °F
Dew Point 34 °F
Humidity 65%
Rainfall 0.00 in
Snow Depth Not available.
7:18 AM 5:09 PM
Waxing Crescent, 14% visible
METAR KTUL 031053Z 00000KT 10SM BKN070 OVC100 07/01 A3020 RMK AO2 SLP226 T00720011

10-Day Weather Forecast

Almanac

Astronomy

Dec. 03, 2016 Rise Set
Actual Time
Civil Twilight
Nautical Twilight
Astronomical Twilight
Moon
Length of Visible Light
Length of Day
Tomorrow will be .
, % of the Moon is Illuminated

Today's Extremes

State Highs State Lows

Community

WunderPhotos

Upload Photos

1,955,431 photos uploaded!

WunderBlog® & News

Nearby

Air Quality

  Air Quality AQ Index Pollutant
Not available.

Snow Depth

Station Depth Elevation

Earthquake Activity

City Distance Mag. Time & Date
Minimum magnitude displayed is 2.5.

Coastal Water Temperatures

Place Temperature

Stations

Nearby Weather Stations

Station Location Temp. Windchill Dew Point Humidity Wind Precip. Elev Updated Type
                   

Watches & Warnings

There are currently no watches in effect.